Wind_Speed
33 31 30 29 28 27 26 23 20 18 17 17 16 14 13 13 13 13 13 13 13 14 13 12 12 12 12 12 11 11 10 9 9 10 10 10 9 9 10 10 10 10 10 10
33 32 31 30 29 29 27 25 22 20 19 18 17 16 14 13 13 13 13 13 14 14 13 13 13 14 13 13 12 11 11 11 11 11 11 11 11 11 11 11 12 12 11 11
33 33 32 32 31 29 28 26 24 22 21 20 18 17 16 15 14 14 14 14 14 14 14 14 14 15 14 13 13 12 12 13 13 12 12 12 12 12 12 12 12 12 12 12
32 32 32 32 31 30 28 27 25 23 22 21 20 18 18 17 16 16 15 15 14 14 15 15 15 15 14 14 14 14 13 14 14 14 14 13 12 12 12 12 12 12 12 13
32 31 32 33 31 30 29 28 26 24 22 21 20 19 19 19 18 17 16 15 15 15 16 16 16 16 14 14 14 14 15 15 15 15 14 14 13 13 13 13 13 13 14 14
33 31 30 32 31 30 29 28 27 25 23 22 21 20 20 19 19 18 17 16 16 17 17 17 17 17 16 15 15 16 16 16 16 15 15 15 15 14 14 14 14 15 15 15
33 31 30 32 30 29 29 29 28 26 24 23 22 22 21 20 20 19 18 18 18 18 18 19 18 18 17 16 16 17 17 17 17 16 16 16 16 15 15 15 15 16 16 17
33 31 31 31 29 30 30 29 28 27 26 24 23 23 22 22 21 20 20 19 19 19 19 19 18 18 17 17 17 17 17 17 17 17 18 17 16 16 15 15 15 16 17 17
34 33 31 30 29 29 29 29 28 27 26 26 24 24 24 23 22 22 21 20 20 20 20 19 18 18 18 18 18 17 17 18 18 18 17 16 16 16 15 16 16 16 17 17
35 33 31 29 28 28 28 28 28 27 26 26 25 25 24 24 24 23 22 22 21 20 20 19 18 18 18 18 18 18 18 18 19 18 17 17 17 17 17 16 16 17 18 19
34 33 32 30 28 29 29 28 28 27 27 26 26 25 25 25 25 24 23 22 21 20 20 19 19 19 19 19 19 18 19 19 19 19 18 18 17 17 16 16 17 17 18 19
34 33 32 30 29 29 29 29 28 28 27 27 27 26 25 25 25 25 24 23 22 21 21 21 21 21 20 20 20 20 20 20 19 19 19 18 18 17 17 17 18 19 19 20
34 33 32 31 30 30 29 29 29 28 28 28 27 26 26 26 26 26 25 24 23 23 23 23 22 22 21 22 22 21 21 20 20 19 19 19 19 19 19 19 20 20 21 21
34 33 33 32 32 31 30 29 29 28 28 28 28 27 26 27 27 26 26 25 25 25 24 24 23 23 22 23 23 22 23 22 22 21 21 21 21 21 21 21 21 22 22 23
33 33 32 32 32 31 30 30 29 29 28 28 28 28 27 28 28 27 27 27 27 26 26 25 25 25 24 24 23 23 23 24 24 23 22 22 22 23 22 22 23 23 24 24
33 33 32 32 32 32 31 30 30 29 28 29 30 29 29 28 28 28 28 28 28 27 26 26 26 26 25 25 25 25 25 25 25 24 24 24 24 24 24 24 24 25 25 26
33 33 32 32 32 32 32 32 31 30 29 30 30 30 30 29 29 29 29 29 29 28 27 27 27 26 26 26 26 26 26 26 26 26 26 25 25 25 25 25 26 26 26 27
32 32 32 32 32 31 32 32 31 31 30 29 29 30 30 30 29 29 29 29 29 28 28 28 27 27 27 26 27 27 27 27 26 26 26 26 26 26 26 26 26 27 27 28
32 31 31 31 32 32 31 31 31 31 30 29 29 29 29 29 29 29 30 30 30 29 29 29 28 27 27 27 28 28 27 27 26 26 26 27 27 27 27 27 27 28 29 29
29 29 29 30 30 30 30 30 30 29 29 29 29 29 29 29 29 29 30 30 29 30 30 30 30 29 28 28 27 27 26 26 26 26 27 27 27 26 26 27 28 29 29 29
27 27 27 28 28 28 28 28 28 28 28 28 29 29 29 29 29 29 30 30 30 30 30 30 29 29 27 26 26 26 27 27 27 27 27 27 26 26 26 27 27 29 29 29
26 26 26 26 26 26 26 26 26 26 27 27 28 27 28 28 28 29 29 30 30 29 29 29 28 27 27 26 26 27 27 27 27 27 27 27 26 26 26 26 28 28 28 28
26 25 25 25 26 25 25 25 25 25 26 27 26 26 26 27 27 26 26 27 27 27 27 26 26 26 26 26 27 27 27 27 27 26 26 26 26 26 26 27 27 27 27 28
25 25 24 23 24 24 24 24 24 24 24 24 24 24 24 25 25 25 25 25 25 25 26 26 25 25 26 26 26 27 26 27 27 26 25 25 25 26 26 26 26 27 27 27
21 22 22 21 22 22 23 23 22 22 22 22 22 23 23 23 23 23 24 24 24 24 24 24 25 25 26 26 26 26 26 26 25 24 24 24 25 25 25 25 26 26 27 27
20 21 22 21 22 22 22 22 21 21 21 21 21 22 22 22 23 23 23 23 24 24 24 24 25 25 25 25 25 25 25 24 24 24 24 24 24 24 24 24 25 26 27 27
19 20 21 21 21 21 21 21 20 19 19 20 20 20 21 21 22 22 22 22 22 22 23 23 23 23 23 23 24 23 23 23 23 23 23 23 22 23 23 24 25 26 26 27
Wind_Direction
222 226 228 229 230 230 232 233 236 240 239 243 246 252 257 259 263 270 278 285 291 295 299 301 302 306 307 310 308 305 307 308 305 304 304 302 301 298 297 298 298 299 300 298
223 225 228 229 228 229 231 232 235 238 239 241 246 250 254 256 260 267 275 281 286 291 295 297 300 304 303 300 303 305 307 307 302 300 299 298 298 299 296 295 296 297 297 299
222 225 227 229 228 230 231 232 234 237 240 242 244 248 251 254 259 266 271 277 282 287 289 294 297 300 299 297 297 298 301 301 300 297 295 294 291 293 293 293 296 295 294 295
220 223 224 228 228 229 230 232 233 235 238 239 242 246 249 253 258 264 268 271 277 283 287 294 297 297 297 293 293 294 297 299 298 297 295 294 293 291 292 293 293 293 292 293
218 222 226 228 227 227 229 231 233 235 237 237 240 245 248 251 256 261 264 267 273 279 284 290 294 295 292 291 294 296 297 299 301 301 296 293 291 289 289 292 293 293 292 294
217 218 225 230 228 228 230 233 233 235 237 239 239 243 247 250 254 260 263 267 272 276 280 286 291 294 292 291 292 295 296 298 300 299 297 295 291 290 290 289 291 293 295 295
217 219 225 229 227 227 230 233 234 236 238 239 239 242 247 250 253 257 262 266 271 276 280 284 289 291 290 289 291 294 295 297 297 295 295 293 289 289 289 290 288 291 294 296
216 218 226 227 227 228 231 234 235 236 237 238 239 242 244 248 251 255 261 265 269 274 279 281 284 287 286 287 290 293 294 296 296 296 296 292 291 291 289 289 290 291 294 294
217 220 225 226 227 229 231 234 234 235 236 238 239 241 243 245 248 253 258 264 269 273 278 278 278 282 284 286 285 287 290 292 295 295 295 294 294 292 290 290 291 292 295 297
221 223 225 227 226 228 230 232 232 233 234 236 238 240 243 245 248 252 257 262 268 272 275 273 272 276 281 285 286 284 287 290 291 293 292 291 292 292 294 295 296 296 297 298
223 224 225 227 228 229 231 232 232 233 233 235 236 239 242 245 247 251 255 260 265 268 270 271 272 276 280 284 287 285 285 289 290 290 290 292 292 292 293 296 299 301 302 303
222 223 226 228 229 229 231 232 233 233 233 234 235 239 242 243 246 250 254 257 260 265 267 268 271 273 277 281 284 283 284 287 289 289 288 288 289 289 292 295 298 301 302 303
223 225 226 228 229 230 231 232 234 235 235 235 236 240 242 243 245 249 253 256 258 262 266 268 270 272 273 276 280 281 282 286 286 286 285 286 287 289 291 294 296 298 300 302
225 227 228 229 231 232 233 234 235 235 235 236 238 240 243 244 246 248 251 255 257 260 263 267 269 271 274 277 277 277 279 283 284 283 284 284 285 288 290 292 294 296 298 300
226 228 230 232 234 234 234 236 236 235 236 237 239 242 244 245 246 247 251 254 257 259 262 265 269 273 275 276 275 276 278 282 284 285 285 285 286 287 289 291 293 296 298 299
226 228 231 233 235 235 235 236 236 236 239 239 241 243 245 247 248 249 252 255 258 259 262 264 268 272 273 272 273 274 276 280 282 283 283 283 283 285 286 288 291 294 296 299
227 229 232 234 235 236 237 237 237 239 241 243 243 243 244 247 249 251 252 255 257 258 260 263 266 269 270 270 271 273 275 278 280 282 282 281 282 284 286 288 291 293 296 300
228 229 232 234 236 236 238 239 240 240 242 244 244 244 246 248 250 253 254 255 256 258 260 262 265 268 268 268 270 273 275 278 279 279 279 281 283 284 286 288 290 293 295 298
229 231 234 236 236 236 238 239 240 240 242 242 244 245 247 250 251 254 255 255 256 257 260 261 263 265 266 268 270 273 274 276 278 278 279 281 283 284 285 287 290 293 295 297
228 231 233 234 234 234 235 236 236 237 238 241 243 245 247 249 252 253 254 255 256 259 260 260 262 263 265 267 270 273 275 276 277 278 279 280 281 282 285 286 289 293 295 297
226 229 229 229 230 232 233 232 232 233 236 239 242 244 247 248 251 252 254 255 258 259 259 261 262 263 264 266 269 272 274 275 277 278 278 278 279 281 283 287 291 295 295 296
225 228 229 229 229 230 230 231 231 232 235 238 240 243 245 247 249 251 253 254 256 258 259 260 260 263 264 265 268 271 274 275 277 278 278 277 279 281 283 287 291 293 294 296
225 228 229 227 225 225 228 230 232 234 235 238 240 242 244 245 248 251 254 255 255 257 259 260 262 264 264 266 269 271 273 274 275 276 276 277 279 282 284 288 289 290 292 296
223 225 224 222 223 225 227 229 230 232 235 237 239 240 242 245 247 250 251 252 254 256 257 261 263 265 267 268 270 271 273 273 274 275 275 277 280 283 286 288 290 292 293 296
218 219 220 220 221 223 224 226 228 230 234 236 239 241 242 245 247 249 250 252 254 257 260 262 264 265 266 268 269 271 272 273 274 275 277 279 281 284 286 287 290 293 296 298
212 214 215 217 220 222 224 226 229 233 235 237 240 242 242 244 247 250 252 255 257 258 261 264 267 267 267 268 269 270 270 272 274 276 278 279 282 284 285 289 293 296 298 300
210 212 213 214 217 221 224 226 229 232 236 238 240 242 243 245 248 250 253 255 257 260 263 266 267 267 267 268 269 269 270 271 272 275 279 279 282 285 288 291 294 297 300 301
Height
5870 5875 5879 5884 5888 5892 5896 5900 5904 5906 5908 5909 5910 5911 5912 5912 5912 5912 5912 5912 5911 5910 5909 5908 5907 5905 5904 5902 5900 5898 5897 5896 5894 5893 5892 5890 5889 5888 5887 5886 5885 5884 5883 5881
5864 5869 5873 5878 5882 5886 5890 5894 5898 5901 5903 5905 5906 5907 5908 5909 5909 5909 5909 5909 5908 5907 5906 5905 5904 5903 5901 5900 5898 5896 5895 5893 5892 5891 5890 5888 5887 5886 5885 5883 5882 5881 5880 5879
5859 5863 5867 5872 5876 5880 5884 5888 5892 5896 5899 5900 5901 5903 5904 5905 5905 5906 5906 5906 5905 5904 5903 5902 5901 5900 5898 5897 5896 5894 5893 5891 5889 5888 5887 5886 5884 5883 5882 5881 5879 5878 5877 5876
5853 5858 5862 5868 5870 5875 5879 5883 5886 5890 5892 5895 5897 5898 5899 5900 5901 5902 5902 5902 5902 5901 5900 5899 5898 5896 5895 5894 5893 5891 5890 5888 5887 5885 5884 5882 5881 5880 5879 5878 5877 5875 5874 5873
5848 5852 5857 5860 5865 5869 5873 5877 5881 5884 5887 5889 5892 5893 5894 5896 5897 5898 5898 5898 5898 5898 5897 5896 5894 5893 5892 5890 5889 5888 5886 5885 5883 5881 5880 5879 5878 5876 5875 5874 5873 5872 5871 5869
5842 5847 5852 5855 5859 5864 5869 5871 5875 5878 5881 5884 5887 5889 5890 5891 5892 5893 5894 5894 5894 5894 5893 5892 5891 5889 5888 5887 5886 5884 5883 5881 5879 5878 5876 5875 5874 5873 5871 5870 5869 5868 5867 5866
5835 5841 5845 5848 5853 5858 5864 5866 5869 5872 5875 5878 5881 5883 5885 5886 5887 5888 5889 5890 5890 5889 5889 5888 5887 5886 5884 5883 5882 5881 5879 5877 5876 5874 5872 5871 5870 5869 5867 5866 5865 5864 5863 5861
5829 5835 5840 5842 5847 5852 5856 5859 5863 5866 5869 5872 5874 5877 5879 5880 5882 5883 5884 5885 5885 5885 5884 5883 5883 5882 5881 5880 5878 5877 5875 5874 5872 5870 5869 5867 5866 5865 5863 5862 5860 5859 5858 5857
5824 5829 5832 5837 5841 5845 5849 5853 5856 5860 5863 5866 5868 5871 5873 5875 5876 5878 5879 5879 5880 5880 5879 5879 5878 5877 5876 5875 5873 5872 5871 5870 5868 5866 5865 5863 5862 5861 5859 5858 5857 5855 5854 5853
5816 5821 5826 5830 5835 5839 5842 5846 5850 5853 5856 5859 5862 5864 5866 5868 5870 5872 5873 5874 5874 5874 5874 5873 5873 5872 5872 5870 5868 5867 5866 5865 5864 5862 5861 5859 5858 5857 5856 5854 5853 5851 5849 5848
5809 5815 5820 5824 5828 5832 5836 5839 5843 5846 5849 5853 5855 5858 5860 5862 5864 5866 5867 5868 5868 5868 5868 5868 5868 5867 5867 5865 5864 5863 5862 5861 5859 5858 5856 5855 5854 5853 5851 5850 5849 5847 5845 5843
5803 5808 5813 5818 5822 5825 5829 5833 5836 5840 5843 5846 5849 5851 5854 5856 5858 5859 5860 5861 5862 5862 5863 5862 5862 5862 5861 5860 5859 5858 5857 5856 5854 5853 5852 5851 5849 5848 5847 5846 5844 5842 5840 5838
5796 5801 5806 5811 5815 5818 5822 5826 5829 5833 5836 5839 5842 5845 5847 5849 5851 5852 5854 5855 5856 5856 5856 5856 5856 5856 5856 5855 5854 5853 5852 5851 5849 5848 5847 5846 5844 5843 5842 5841 5839 5837 5835 5833
5789 5794 5799 5803 5807 5811 5815 5819 5822 5826 5829 5832 5835 5837 5840 5842 5844 5845 5847 5848 5849 5849 5850 5850 5850 5850 5849 5849 5848 5847 5846 5845 5844 5842 5841 5840 5839 5838 5836 5835 5833 5831 5829 5827
5782 5787 5792 5796 5800 5804 5808 5811 5815 5818 5821 5825 5827 5830 5832 5834 5836 5838 5839 5841 5841 5842 5843 5843 5843 5843 5843 5842 5842 5841 5840 5839 5838 5837 5835 5834 5833 5832 5830 5829 5827 5825 5823 5820
5775 5780 5784 5789 5793 5797 5800 5804 5808 5811 5814 5817 5820 5822 5824 5826 5828 5830 5832 5833 5834 5835 5835 5836 5836 5836 5836 5835 5835 5834 5834 5833 5832 5831 5829 5828 5827 5825 5824 5822 5820 5818 5816 5814
5768 5772 5777 5781 5785 5789 5793 5796 5800 5803 5806 5809 5811 5814 5816 5818 5820 5822 5824 5825 5826 5827 5827 5828 5828 5828 5828 5828 5828 5827 5827 5826 5825 5824 5822 5821 5820 5818 5817 5815 5813 5811 5809 5807
5760 5765 5769 5773 5777 5781 5785 5788 5792 5795 5798 5801 5803 5806 5808 5810 5812 5814 5815 5816 5817 5818 5819 5820 5820 5820 5820 5820 5820 5820 5819 5818 5817 5816 5815 5814 5812 5811 5809 5808 5806 5804 5802 5799
5753 5757 5761 5765 5769 5773 5777 5780 5784 5787 5790 5793 5795 5798 5800 5802 5804 5805 5806 5807 5809 5810 5811 5812 5812 5812 5812 5812 5812 5812 5811 5810 5809 5809 5808 5806 5805 5803 5802 5800 5798 5796 5794 5791
5746 5750 5754 5758 5761 5765 5768 5772 5775 5779 5782 5785 5787 5790 5792 5794 5795 5796 5797 5799 5800 5801 5802 5803 5804 5804 5804 5804 5804 5803 5803 5802 5801 5800 5799 5798 5797 5795 5794 5792 5790 5788 5785 5783
5739 5743 5747 5750 5753 5757 5760 5764 5767 5771 5774 5776 5779 5781 5784 5785 5787 5788 5789 5791 5792 5793 5793 5794 5795 5795 5796 5796 5796 5795 5795 5794 5793 5792 5791 5790 5788 5787 5786 5784 5782 5780 5777 5774
5733 5736 5740 5743 5747 5750 5754 5757 5760 5763 5766 5768 5771 5773 5775 5777 5778 5780 5781 5783 5784 5784 5785 5786 5786 5787 5787 5788 5787 5787 5787 5786 5785 5784 5782 5781 5780 5779 5777 5776 5774 5772 5769 5766
5726 5730 5733 5737 5740 5744 5747 5750 5753 5756 5759 5761 5763 5766 5767 5769 5770 5772 5773 5775 5775 5776 5777 5778 5778 5779 5779 5779 5779 5779 5778 5778 5777 5775 5774 5773 5772 5771 5769 5767 5765 5763 5761 5758
5721 5724 5728 5731 5734 5738 5741 5744 5746 5749 5751 5754 5756 5758 5760 5761 5763 5764 5765 5767 5768 5768 5769 5770 5771 5771 5771 5771 5771 5770 5770 5769 5768 5767 5766 5765 5764 5763 5761 5759 5757 5755 5753 5750
5715 5719 5722 5726 5729 5732 5735 5738 5740 5743 5745 5747 5749 5751 5753 5755 5756 5757 5758 5759 5760 5761 5762 5762 5763 5763 5763 5763 5763 5762 5762 5761 5760 5759 5758 5757 5756 5755 5753 5751 5749 5747 5745 5742
5711 5714 5718 5721 5724 5727 5730 5732 5735 5737 5739 5741 5743 5745 5747 5748 5749 5750 5751 5752 5753 5754 5754 5755 5755 5755 5755 5755 5755 5754 5754 5753 5752 5751 5750 5749 5748 5746 5745 5743 5741 5739 5736 5734
5707 5710 5713 5716 5719 5722 5725 5727 5730 5732 5734 5736 5737 5739 5740 5742 5743 5744 5745 5745 5746 5747 5747 5747 5747 5748 5747 5747 5747 5747 5746 5746 5745 5744 5743 5742 5740 5739 5737 5735 5733 5731 5728 5725